Regional Weather Roundup
Issued by NWS

Home | Current Version | Previous Version | Graphics & Text | Print | Product List | Glossary On
Versions: 1 2 3 4 5 6 7 8 9 10 11 12 13 14 15 16 17 18 19 20 21 22 23 24 25 26 27 28 29 30 31 32 33 34 35 36 37 38 39 40 41 42 43 44 45 46 47 48 49 50
000
ASUS43 KDMX 310007
RWRIA

WEATHER ROUNDUP FOR IOWA
NATIONAL WEATHER SERVICE DES MOINES IA
700 PM CDT SAT AUG 30 2014

NOTE: "FAIR" INDICATES FEW OR NO CLOUDS BELOW 12,000 FEET WITH NO
SIGNIFICANT WEATHER AND/OR OBSTRUCTIONS TO VISIBILITY.

* - THESE STATIONS ARE NOT NWS STATIONS...THUS NOT UNDER NWS
QUALITY CONTROL.  THEY ALSO DO NOT REPORT WEATHER SUCH
AS PRECIPITATION OR FOG.

IAZ001>003-012>014-020>022-031>034-043>046-310100-
   NORTHWEST IOWA

CITY           SKY/WX    TMP DP  RH WIND       PRES   REMARKS
CARROLL *      CLEAR     73  63  68 W3        29.88F
CHEROKEE *     SUNNY     73  64  73 SW3       29.87F
DENISON *      CLEAR     75  63  64 CALM      29.86F
LE MARS *      SUNNY     73  63  68 S6        29.87S
ORANGE CITY *  SUNNY     73  63  68 S3        29.87S
SHELDON *      SUNNY     72  64  78 S3        29.86S
SIOUX CITY     SUNNY     75  62  64 SE5       29.86F
6HR MIN TEMP:  71; 6HR MAX TEMP:  77;

SPENCER        CLEAR     75  63  66 W7        29.87S
6HR MIN TEMP:  74; 6HR MAX TEMP:  78;

STORM LAKE *   CLEAR     72  72 100 SW5       29.88F
$$

IAZ055>058-069>071-079>083-090>094-310100-
   SOUTHWEST IOWA

CITY           SKY/WX    TMP DP  RH WIND       PRES   REMARKS
ATLANTIC *     CLEAR     77  66  69 SW3       29.88S
AUDUBON *      CLEAR     77  70  78 CALM      29.89F
CLARINDA *     CLEAR     81  66  61 CALM      29.89S HX  83
COUNCIL BLFS * SUNNY     77  68  73 CALM      29.87S
CRESTON *      CLEAR     77  66  69 CALM      29.90S
HARLAN  *      CLEAR     75  68  78 S5        29.91S
LAMONI         CLEAR     80  68  66 CALM      29.89R HX  83
6HR MIN TEMP:  79; 6HR MAX TEMP:  84;

RED OAK *      CLEAR     81  66  61 CALM      29.88S HX  83
SHENANDOAH *   CLEAR     81  70  69 CALM      29.87F HX  84
$$

IAZ047>049-059>061-072>074-084-310100-
   CENTRAL IOWA

CITY           SKY/WX    TMP DP  RH WIND       PRES   REMARKS
AMES           CLEAR     75  67  76 SW6       29.87F
6HR MIN TEMP:  75; 6HR MAX TEMP:  80;

ANKENY *       CLEAR     77  68  73 W8G14     29.87S
CHARITON *     CLEAR     81  68  65 CALM      29.88S HX  83
DES MOINES     PTCLDY    79  68  69 NW7       29.87S HX  81
6HR MIN TEMP:  79; 6HR MAX TEMP:  84;

GRINNELL*      PTCLDY    75  68  78 CALM      29.88S
KNOXVILLE *    CLEAR     79  68  69 CALM      29.86S HX  81
MARSHALLTOWN   CLEAR     76  67  73 NW5       29.87S
6HR MIN TEMP:  75; 6HR MAX TEMP:  79;

PELLA *        CLEAR     80  69  68 CALM      29.88S HX  83
PERRY *        MOCLDY    75  68  78 CALM      29.88S
$$

IAZ004>006-015-016-023>025-035-036-310100-
   NORTH CENTRAL IOWA

CITY           SKY/WX    TMP DP  RH WIND       PRES   REMARKS
ALGONA *       PTCLDY    75  64  69 CALM      29.87S
CLARION *      CLEAR     75  64  69 CALM      29.87S
ESTHERVILLE    CLEAR     74  62  66 CALM      29.86F
6HR MIN TEMP:  69; 6HR MAX TEMP:  76;

FORT DODGE *   CLEAR     73  63  68 W5        29.88S
MASON CITY     CLEAR     75  64  68 W5        29.88S
6HR MIN TEMP:  74; 6HR MAX TEMP:  80;

FOREST CITY *  CLEAR     73  64  73 W3        29.87S
IOWA FALLS *     N/A     75  63  66 SW3       29.89S
$$

IAZ007>011-017>019-026>030-037>042-050>054-066-310100-
   NORTHEAST IOWA

CITY           SKY/WX    TMP DP  RH WIND       PRES   REMARKS
CEDAR RAPIDS   PTCLDY    75  69  81 SW5       29.87R
6HR MIN TEMP:  74; 6HR MAX TEMP:  80;

CHARLES CITY * CLEAR     75  66  73 W6        29.87S
CLINTON *      CLEAR     75  68  78 W5        29.89S
DECORAH *      PTCLDY    75  66  73 CALM      29.85S
DUBUQUE        CLEAR     75  66  73 W8        29.87R
6HR MIN TEMP:  74; 6HR MAX TEMP:  79;

MONTICELLO *   CLEAR     77  68  73 W5        29.87R
OELWEIN *      CLEAR     75  66  73 SW6       29.87S
WATERLOO       PTCLDY    77  65  66 W7        29.85S
6HR MIN TEMP:  75; 6HR MAX TEMP:  80;

$$

IAZ064-065-067-068-078-310100-
   EAST CENTRAL IOWA

CITY           SKY/WX    TMP DP  RH WIND       PRES   REMARKS
DAVENPORT      CLEAR     77  68  73 W3        29.88R
6HR MIN TEMP:  77; 6HR MAX TEMP:  80;

IOWA CITY      CLEAR     77  67  71 SW3       29.88S
6HR MIN TEMP:  76; 6HR MAX TEMP:  80;

MT. PLEASANT * PTCLDY    80  65  62 W5        29.88S HX  81
MUSCATINE *    CLEAR     79  68  69 W5        29.87S HX  81
QUAD CITIES    CLEAR     79  67  66 W3        29.86S HX  81
6HR MIN TEMP:  77; 6HR MAX TEMP:  83;

$$

IAZ062-063-075>077-085>089-095>099-310100-
   SOUTHEAST IOWA

CITY           SKY/WX    TMP DP  RH WIND       PRES   REMARKS
BURLINGTON     LGT RAIN  80  69  69 W3        29.87S HX  83
6HR MIN TEMP:  79; 6HR MAX TEMP:  83; 6HR PCP: TRACE;

FAIRFIELD *    CLEAR     79  68  69 CALM      29.89S HX  81
FORT MADISON * CLEAR     81  70  69 W3        29.89S HX  84
KEOKUK *       CLEAR     79  70  73 NW6       29.87S HX  81
OSKALOOSA *      N/A     77  70  79 S3        29.88S
CENTERVILLE *  CLEAR     81  73  78 CALM      29.90S HX  85
OTTUMWA        CLEAR     78  69  73 S3        29.88S HX  80
6HR MIN TEMP:  74; 6HR MAX TEMP:  80;

WASHINGTON *   CLEAR     77  70  78 W3        29.88S
$$

ABBREVIATIONS USED IN REMARKS
   TC - TEMPERATURES IN CELSIUS
  WCI - WIND CHILL INDEX
   HX - HEAT INDEX
  VSB - VISIBILITY
$$



USA.gov is the U.S. government's official web portal to all federal, state and local government web resources and services.